Tracking 17886 objects as of 8-December-2016
HD Live streaming from Space Station
objects crossing your sky now

CRRES DEB (CANISTER)

Track CRRES DEB (CANISTER) now!


NORAD ID: 27051
Int'l Code: 1990-065U
Perigee: 330.3 km
Apogee: 30,220.4 km
Inclination: 18.2 °
Period: 528.2 minutes
Semi major axis: 21646 km
RCS: 0.1304 m2 (medium)
Launch date: July 25, 1990
Source: United States (US)
Launch site: AIR FORCE EASTERN TEST RANGE (AFETR)

Note: This is SATELLITE DEBRIS
Your satellite tracking list
Your tracking list is empty





NASA's NSSDC Master Catalog

Two Line Element Set (TLE):
1 27051U 90065U   16342.04185512 -.00000060  00000-0  24142-3 0  9990
2 27051  18.1525 319.7087 6904177  49.5276 352.7984  2.72603542164124
Source of the keplerian elements: AFSPC